User: anonymous   Login
Location: Morlupo
(42.1333°N, 12.5000°E)
Time: 11:32:12
(UTC+00:00)
Language:

Cosmos 2151 Rocket - Orbit

View from above orbital plane
View from above orbital plane
View from above satellite
View from above satellite

Ground track
Ground track

The orbit data is extracted from the following two-line orbital elements,

1 21423U 91042B   20337.83247680  .00000126  00000-0  13636-4 0  9993
2 21423  82.4955 219.5287 0019035  69.3723 290.9529 14.79807204568567
Epoch (UTC): 02 December 2020 19:58:45
Eccentricity: 0.0019035
inclination: 82.4955°
perigee height: 616 km
apogee height: 643 km
right ascension of ascending node: 219.5287°
argument of perigee: 69.3723°
revolutions per day: 14.79807204
mean anomaly at epoch: 290.9529°
orbit number at epoch: 56856

The dashed part of the orbit path shows where the satellite is in the earth's shadow,  

DLR